Location: Unspecified
(0.0000°N, 0.0000°E)
Time: 02:42:38
(UTC+00:00)

OBJECT M - Visible Passes

Search period start: 18 February 2026 00:00
Search period end: 28 February 2026 00:00
Orbit: 540 x 547 km, 97.4° (Epoch: 17 February)

Date Brightness Start Highest point End Pass type
(mag) Time Alt. Az. Time Alt. Az. Time Alt. Az.
18 Feb ? 03:58:24 10° SE 03:59:34 17° SE 03:59:34 17° SE visible
19 Feb ? 03:52:13 10° SE 03:53:02 14° SE 03:53:02 14° SE visible
20 Feb ? 03:46:07 10° SE 03:46:29 12° SE 03:46:29 12° SE visible
20 Feb ? 05:21:56 10° SW 05:22:02 10° WSW 05:22:02 10° WSW visible
21 Feb ? 05:14:45 10° SW 05:15:28 12° SW 05:15:28 12° SW visible
22 Feb ? 05:07:50 10° SSW 05:08:54 15° SW 05:08:54 15° SW visible
23 Feb ? 05:01:01 10° SSW 05:02:19 17° SW 05:02:19 17° SW visible
24 Feb ? 04:54:18 10° SSW 04:55:43 19° SSW 04:55:43 19° SSW visible
25 Feb ? 04:47:37 10° SSW 04:49:06 20° SSW 04:49:06 20° SSW visible
26 Feb ? 04:40:59 10° S 04:42:29 21° SSW 04:42:29 21° SSW visible
27 Feb ? 04:34:24 10° S 04:35:51 22° S 04:35:51 22° S visible
